Weather History for Fort Sill, OK

Change the Weather History Date:

Wednesday, July 10, 2013

  Actual Average Record
Temperature  
Mean Temperature 88 °F -  
Max Temperature 103 °F 97 °F 107 °F (1980)
Min Temperature 76 °F 72 °F 57 °F (1961)
Cooling Degree Days 24    
Growing Degree Days 38 (Base 50)    
Moisture  
Dew Point 62 °F    
Average Humidity 40    
Maximum Humidity 59    
Minimum Humidity 27    
Precipitation  
Precipitation 0.00 in - - ()
Sea Level Pressure  
Sea Level Pressure 29.94 in    
Wind  
Wind Speed 7 mph (SSW)    
Max Wind Speed 15 mph    
Max Gust Speed 22 mph    
Visibility 10 miles    
Events      
Averages and records for this station are not official NWS values.
T = Trace of Precipitation, MM = Missing Value Source: NWS Daily Summary

Daily Weather History Graph

Daily Weather History Graph

Search for Another Location

Airport:

Trip Planner

Search our weather history database for the weather conditions in past years. The results will help you decide how hot, cold, wet, or windy it might be!

Date:

Astronomy

Jul. 10, 2013 Rise Set
Actual Time 6:29 AM CDT 8:48 PM CDT
Civil Twilight 5:59 AM CDT 9:17 PM CDT
Nautical Twilight 5:24 AM CDT 9:53 PM CDT
Astronomical Twilight 4:45 AM CDT 10:32 PM CDT
Moon 8:43 AM CDT (7/10) 10:08 PM CDT (7/10)
Length of Visible Light 15h 17m
Length of Day
14h 19m
Waxing Crescent, 5% of the Moon is Illuminated
Jul 10
Waxing Crescent
Jul 15
First Quarter
Jul 22
Full
Jul 29
Last Quarter
Aug 6
New

Hourly Weather History & Observations

Time (CDT) Temp. Heat Index Dew Point Humidity Pressure Visibility Wind Dir Wind Speed Gust Speed Precip Events Conditions
12:58 AM 84.7 °F 85.0 °F 61.2 °F 45% 29.96 in 10.0 mi South 8.1 mph - N/A   Clear
1:58 AM 81.7 °F 82.4 °F 61.3 °F 50% 29.96 in 10.0 mi South 5.8 mph - N/A   Clear
2:58 AM 80.8 °F 81.6 °F 61.0 °F 51% 29.96 in 10.0 mi South 5.8 mph - N/A   Clear
3:58 AM 80.6 °F 81.5 °F 60.8 °F 51% 29.96 in 10.0 mi SSW 4.6 mph - N/A   Clear
4:58 AM 78.8 °F - 61.2 °F 55% 29.96 in 10.0 mi SSW 4.6 mph - N/A   Clear
5:58 AM 76.8 °F - 61.3 °F 59% 29.97 in 10.0 mi SSW 3.5 mph - N/A   Clear
6:58 AM 77.5 °F - 61.3 °F 57% 29.98 in 10.0 mi SW 3.5 mph - N/A   Clear
7:58 AM 81.3 °F 82.3 °F 61.9 °F 52% 29.99 in 10.0 mi WSW 4.6 mph - N/A   Clear
8:58 AM 85.6 °F 85.9 °F 61.5 °F 44% 30.00 in 10.0 mi WSW 10.4 mph - N/A   Clear
9:58 AM 92.1 °F 92.4 °F 61.7 °F 36% 29.99 in 10.0 mi WSW 13.8 mph 21.9 mph N/A   Clear
10:58 AM 95.2 °F 96.3 °F 62.4 °F 34% 29.99 in 10.0 mi West 15.0 mph 21.9 mph N/A   Clear
11:58 AM 97.9 °F 98.8 °F 61.7 °F 30% 29.99 in 10.0 mi WSW 10.4 mph 17.3 mph N/A   Clear
12:58 PM 100.0 °F 101.2 °F 61.2 °F 28% 29.97 in 10.0 mi Variable 4.6 mph - N/A   Clear
1:58 PM 101.1 °F 102.4 °F 61.5 °F 27% 29.96 in 10.0 mi SSW 8.1 mph - N/A   Partly Cloudy
2:58 PM 100.2 °F 101.5 °F 61.2 °F 28% 29.94 in 10.0 mi SSW 10.4 mph - N/A   Mostly Cloudy
3:58 PM 100.6 °F 102.1 °F 61.9 °F 28% 29.92 in 10.0 mi Variable 4.6 mph - N/A   Clear
4:58 PM 100.4 °F 102.4 °F 62.4 °F 29% 29.90 in 10.0 mi South 10.4 mph 16.1 mph N/A   Clear
5:58 PM 101.3 °F 102.7 °F 62.1 °F 27% 29.87 in 10.0 mi South 9.2 mph - N/A   Scattered Clouds
6:58 PM 99.5 °F 100.9 °F 61.7 °F 29% 29.86 in 10.0 mi SSW 8.1 mph - N/A   Clear
7:58 PM 98.4 °F 99.7 °F 62.2 °F 30% 29.87 in 10.0 mi SSE 8.1 mph - N/A   Scattered Clouds
8:58 PM 94.1 °F 95.0 °F 63.0 °F 35% 29.86 in 10.0 mi SSE 9.2 mph - N/A   Clear
9:58 PM 91.8 °F 93.8 °F 64.9 °F 41% 29.86 in 10.0 mi SSE 10.4 mph - N/A   Clear
10:58 PM 88.3 °F 90.2 °F 65.3 °F 46% 29.91 in 10.0 mi SE 5.8 mph - N/A   Scattered Clouds
11:58 PM 85.6 °F 87.6 °F 65.5 °F 51% 29.91 in 10.0 mi SSE 5.8 mph - N/A   Mostly Cloudy